Regional Weather Roundup
Issued by NWS Charleston, SC

Current Version | Previous Version | Graphics & Text | Print | Product List | Glossary On
Versions: 1 2 3 4 5 6 7 8 9 10 11 12 13 14 15 16 17 18 19 20 21 22 23 24 25 26 27 28 29 30 31 32 33 34 35 36 37 38 39 40 41 42 43 44 45 46 47 48 49 50
000
ASUS42 KCHS 171810
RWRCHS
REGIONAL WEATHER ROUNDUP
NATIONAL WEATHER SERVICE CHARLESTON SC
100 PM EST WED DEC 17 2014

NOTE: "FAIR" INDICATES FEW OR NO CLOUDS BELOW 12,000 FEET WITH NO
SIGNIFICANT WEATHER AND/OR OBSTRUCTIONS TO VISIBILITY.

NOT ALL STATIONS ARE QUALITY CONTROLLED BY THE NATIONAL
WEATHER SERVICE. USE DATA WITH CAUTION...ESPECIALLY
DEWPOINT OBSERVATIONS.

SCZ027-030-031-034>040-042>050-171900-
...SOUTHEAST SOUTH CAROLINA...

CITY           SKY/WX    TMP DP  RH WIND       PRES   REMARKS
N CHARLESTON   MOSUNNY   62  40  44 VRB6      30.11F
6HR MIN TEMP:  42; 6HR MAX TEMP:  63;

WATERFRONT PRK   N/A     59 N/A N/A S3          N/A
MOUNT PLEASANT LGT RAIN  63  43  48 W3        30.11F
PINOPOLIS        N/A     57  45  62 CALM      30.05F
MONCKS CORNER  FAIR      61  39  44 CALM      30.11F
SUMMERVILLE    FAIR      63  43  48 SW3       30.11F
BEAUFORT MCAS  PTSUNNY   62  43  49 CALM      30.11F
6HR MIN TEMP:  45; 6HR MAX TEMP:  63;

BEAUFORT ARPT  FAIR      61  43  51 CALM      30.12F
HILTON HEAD IS SUNNY     61  43  51 SE5       30.13F
WALTERBORO     CLEAR     63  34  34 CALM      30.11F
ALLENDALE      FAIR      59  41  51 CALM      30.10F

...SOUTHERN MIDLANDS AND PEE DEE...

CITY           SKY/WX    TMP DP  RH WIND       PRES   REMARKS
GEORGETOWN     NOT AVBL
KINGSTREE      NOT AVBL
ORANGEBURG     SUNNY     60  38  43 W5        30.10F
6HR MIN TEMP:  35; 6HR MAX TEMP:  60;

BARNWELL       FAIR      63  39  42 S3        30.11F
AIKEN          FAIR      59  39  47 SW3       30.13F
MANNING        NOT AVBL
COLUMBIA       MOSUNNY   61  36  39 W8        30.10F
6HR MIN TEMP:  35; 6HR MAX TEMP:  61;

SUMTER         SUNNY     61  38  43 NW6       30.08F
6HR MIN TEMP:  40; 6HR MAX TEMP:  61; 6HR PCP: TRACE;

FLORENCE       SUNNY     60  38  43 NW6       30.09F
6HR MIN TEMP:  38; 6HR MAX TEMP:  61;

MYRTLE BEACH   SUNNY     61  39  44 NW9       30.10F
N MYRTLE BEACH SUNNY     62  39  42 NW5       30.07F
6HR MIN TEMP:  44; 6HR MAX TEMP:  63;


$$

GAZ063-065-086>088-099>101-113>116-118-119-134>141-150-171900-
...SOUTHEAST GEORGIA...

CITY           SKY/WX    TMP DP  RH WIND       PRES   REMARKS
SAVANNAH ARPT  PTSUNNY   63  39  41 CALM      30.12F
6HR MIN TEMP:  43; 6HR MAX TEMP:  63;

HUNTER AAF     SUNNY     62  42  47 SW2       30.10F
6HR MIN TEMP:  40; 6HR MAX TEMP:  62;

FORT STEWART   SUNNY     61  41  48 VRB2      30.11F
6HR MIN TEMP:  42; 6HR MAX TEMP:  62; 6HR PCP: TRACE;

STATESBORO     MOSUNNY   60  42  52 SW5       30.12F
SYLVANIA       PTCLDY    60  43  53 CALM      30.12F
CLAXTON        FAIR     N/A N/A N/A W5        30.13F

...CSRA...CENTRAL AND FAR SOUTHEAST GEORGIA...

CITY           SKY/WX    TMP DP  RH WIND       PRES   REMARKS
THOMSON        SUNNY     59  44  55 NW5       30.16F
AUGUSTA-BUSH   SUNNY     59  38  45 S3        30.11F
6HR MIN TEMP:  29; 6HR MAX TEMP:  59;

AUGUSTA-DANIEL SUNNY     59  39  47 CALM      30.11F
SWAINSBORO     FAIR      61  45  55 W5        30.14F
VIDALIA        SUNNY     59  43  55 W3        30.14F
EASTMAN        FAIR      60  42  51 NW6       30.17F
HAZLEHURST     FAIR      61  43  50 CALM      30.13F
ALMA           SUNNY     60  39  45 NW9       30.15F
6HR MIN TEMP:  36; 6HR MAX TEMP:  60;

WAYCROSS       SUNNY     64  44  49 NW8       30.15F
JESUP          FAIR      63  45  51 NW5       30.13F
BAXLEY         FAIR      61  41  48 NW7       30.14F
BRUNSWICK      SUNNY     63  41  45 W5        30.14F
SAINT SIMONS   SUNNY     59  41  51 SW7       30.13F
6HR MIN TEMP:  45; 6HR MAX TEMP:  59;


$$

SCZ027-028-034-036>038-045-046-048>050-GAZ119-141-171900-
...LAKE AND SUPPLEMENTAL COASTAL OBSERVATIONS...

STATION/POSITION TIME  TEMP    WIND        PRES    WAVE   SWELL
                       AIR SEA DIR/SP/G            HT/PER HT/PER/DIR
                 (UTC) (F)     (DEG/KT/KT) (MB)    (FT/S) (FT/S/D)
UPR LAKE MARION  NOT AVBL
WINYAH BAY       1700   57     290/  3     1019.0
LAKE MURRAY      1700   55     180/  6/  7 1019.3F
ACE BASIN NERRS  1700   60     300/  1     1021.0S
FORT PULASKI     1800   57 56   30/  1/  2 1020.4F
SAPELO ISLAND    1700   57     220/  2     1021.0F

$$

ANZ835-935-AMZ111-154-330-350-352-354-370-450-454-472-171900-
...C-MAN AND BUOY OBSERVATIONS...

STATION/POSITION TIME  TEMP    WIND        PRES    WAVE   SWELL
                       AIR SEA DIR/SP/G            HT/PER HT/PER/DIR
                 (UTC) (F)     (DEG/KT/KT) (MB)    (FT/S) (FT/S/D)
BUOY 41004       1800   59 73   20/  4/  8 1019.4F   3/ 4   2/ 4
BUOY 41008       1800   52 58  290/  2/  4 1020.7F   1/10   2/110/10
FOLLY BEACH CMAN 1700   59      60/  2/  3 1020.8F
CAPERS NEARSHORE 1700   59      CALM  /  2   N/A
FRIPP NEARSHORE  NOT AVBL


STATION/POSITION TIME  TEMP    WIND        PRES    WAVE   SWELL
                       AIR SEA DIR/SP/G            HT/PER HT/PER/DIR
                 (UTC) (F)     (DEG/KT/KT) (MB)    (FT/S) (FT/S/D)
5E ST. MARYS GA  1800      61                N/A     2/11
FRYING PAN BUOY  1800   56 67  340/  6/ 10 1019.5F   3/ 6   2/190/ 6
BUOY 41025       1800   53                 1017.0F   3/ 7
CAPE LOOKOUT NC  1700   56     330/  6/  7 1017.7F
BUOY 41002       1653   68 73  320/ 10/ 16 1017.6    7/ 8   7/280/ 8
BUOY 41010       1800   71 76  290/ 14/ 16 1019.8F   4/ 7   2/300/ 7
ST AUGUSTINE FL  1800   58      50/  5/  5 1021.1F


$$



USA.gov is the U.S. government's official web portal to all federal, state and local government web resources and services.